User: anonymous   Login
Location: Demmingen
(48.6757°N, 10.4375°E)
Time: 09:56:53
(UTC+00:00)
Language:

CZ-6A DEB - Orbit

View from above orbital plane
View from above orbital plane
View from above satellite
View from above satellite

Ground track
Ground track

The orbit data is extracted from the following two-line orbital elements,

1 57577U 22151AHU 24244.34955204  .00127034  00000-0  22358-1 0  9998
2 57577  98.6618 278.2043 0098040 108.1676 253.0228 14.63742375 72909
Epoch (UTC): 31 August 2024 08:23:21
Eccentricity: 0.0098040
inclination: 98.6618°
perigee height: 612 km
apogee height: 750 km
right ascension of ascending node: 278.2043°
argument of perigee: 108.1676°
revolutions per day: 14.63742375
mean anomaly at epoch: 253.0228°
orbit number at epoch: 7290

The dashed part of the orbit path shows where the satellite is in the earth's shadow,  

DLR